Showing default

SACI 1, 25941

Orbit data source: Space-Track

SACI 1, 25941 is a payload satellite owned by INPE (BR) in SSO that was launched on Thu, 14 Oct 1999 UTC via a CHANG ZHENG 4B launch vehicle from the Taiyaun Space Center, China (TSC). Payload-class satellites include a variety of spacecraft equipped with specific instruments for various scientific and technological missions. These include communications satellites like Starlink; space stations such as the ISS; scientific satellites like the Hubble; Earth observation satellites from companies like Planet Labs, Umbra, and HawkEye 360; GPS; miniature CubeSats for education and research; and military/defense satellites.

Loading next visibility...
Identifier
25941, 1999-057B
Orbit
SSO
Country
Flag of UnknownUnknown / BRAZ
Related business
Manufacturer
INPE
Mission
Civil Science
Bus & Motor
SACI, Unknown motor
Mass
60 kg wet, 60 kg dry
Launch date (UTC)
1999-10-14 (26 years ago)
Launch vehicle
CHANG ZHENG 4B
Launch site
Taiyaun Space Center, China (TSC)
Object type
Payload
Rocket body
Debris
Shape & HBR
Box + 4 Pan, 0.6 m
Radar Cross Section
0.500 m², Medium (>0.1 m² and < 1m²)

Expand to show TLE details & history
Last TLE update: 7 hours ago

TLE from 7 hours ago
0 SACI 1
1 25941U 99057B   25289.09764071  .00000797  00000-0  19811-3 0  9997
2 25941  98.6713 324.1378 0007618 331.1088  28.9685 14.54600322377159
Epoch: 2025-10-16T02:20Z
TLE epoch observation values (Epoch: 2025-10-16T02:20:36.157Z)
Latitude
-0.00001°
Longitude
-95.8751°
Altitude
708.901 km
Speed
7.504 km/s
True Right ascension
21h 36m 33s
True Declination
0° 00' 00"
Sunlit
Object was in full shadow at epoch
Visualization orbit readout
Latitude
Unknown
Longitude
Unknown
Altitude
Unknown
Speed
Unknown
Apparent Right ascension
Unknown
Apparent Declination
Unknown
Sunlit
N/A
Visualization observer readout
Local Sidereal Time
04:00:29
Azimuth
Unknown
Elevation
Unknown
Doppler factor
Unknown
Orbital elements
Apogee altitude
713.172 km
Perigee altitude
702.376 km
Semi-major axis
7,085.911 km
Eccentricity
0.00076
Inclination
98.6713°
RAAN
324.1378°
Arg. of periapsis
331.1088°
True anomaly
29.01082°
Mean anomaly
28.9685°
Eccentric anomaly
28.98965°
Mean motion
3.63873 °/min
Orbital period
98.94 mins
BSTAR
0.00019811
Loading maneuver chart data...
Computing Atmospheric mass density...
Loading historical data...
Loading historical data...
Loading historical data...
Loading historical data...
Loading historical data...
Loading historical data...
Loading historical data...

Documentation

Showing up to 5 results
|